Regional Weather Roundup
Issued by NWS Green Bay, WI

Home | Current Version | Previous Version | Text Only | Print | Product List | Glossary On
Versions: 1 2 3 4 5 6 7 8 9 10 11 12 13 14 15 16 17 18 19 20 21 22 23 24 25 26 27 28 29 30 31 32 33 34 35 36 37 38 39 40 41 42 43 44 45 46 47 48 49 50
000
ASUS43 KGRB 271811
RWRGRB

NORTH-CENTRAL AND NORTHEAST WISCONSIN REGIONAL WEATHER ROUNDUP
NATIONAL WEATHER SERVICE GREEN BAY WI
100 PM CDT THU APR 27 2017

WIZ005-009-010>012-018-019-271900-
NORTH CENTRAL WISCONSIN

CITY           SKY/WX    TMP DP  RH WIND       PRES   REMARKS
IRONWOOD       LGT SNOW  27  25  93 NW12      29.46S VSB 3/4
MANITOWISH WTR LGT SNOW  26  26  99 NW9       29.42S VSB 3/4
ARBOR VITAE    LGT SNOW  31  29  92 NW8       29.41S VSB 3/4
EAGLE RIVER    LGT SNOW  28  26  91 NW12G17   29.40R VSB 3/4
LAND O LAKES   LGT SNOW  29  26  88 NW8       29.40S VSB 3/4
RHINELANDER    SNOW      30  26  85 W14       29.42R VSB 1/2
PHILLIPS       LGT SNOW  28  26  94 W5        29.45S VSB 3/4
ANTIGO         LGT SNOW  31  31  97 W13G18    29.41R
TOMAHAWK       LGT SNOW  29  26  88 W10G16    29.45R
MERRILL        LGT SNOW  30  28  93 NW6       29.46R VSB 1
$$

WIZ013-073-271900-
NORTHEAST WISCONSIN

CITY           SKY/WX    TMP DP  RH WIND       PRES   REMARKS
IRON MOUNTAIN  LGT SNOW  34  30  85 NW16      29.34R FOG
MARINETTE      LGT RAIN  39  38  96 VRB5      29.39R FOG
OCONTO         CLOUDY    40  37  89 W10       29.40R
$$

WIZ017-030-035>037-045-271900-
CENTRAL WISCONSIN

CITY           SKY/WX    TMP DP  RH WIND       PRES   REMARKS
MEDFORD        MIX PCPN  29  27  92 W8        29.47R
WAUSAU         LGT SNOW  31  29  92 W15       29.45R VSB 3/4
MOSINEE        SNOW      30  30 100 W9G20     29.48R VSB 1/2
MARSHFIELD     CLOUDY    32  30  92 W12       29.48S FOG
WISC RAPIDS    LGT SNOW  34  33  96 MISG      29.51R FOG
STEVENS POINT  MIX PCPN  31  30  97 W10G16    29.49R
WAUPACA        LGT SNOW  36  33  90 W12G21    29.49R
SHAWANO        RAIN      37  35  91 W9        29.43R
CLINTONVILLE   LGT RAIN  34  34 100 W10G18    29.45R
WAUTOMA        FLURRIES  35  33  92 W13       29.51R
$$

WIZ038-039-048-051-271900-
FOX VALLEY

CITY           SKY/WX    TMP DP  RH WIND       PRES   REMARKS
NWS GREEN BAY  LGT RAIN  40  37  89 W21       29.44R
APPLETON       LGT SNOW  36  36 100 W21G29    29.44R
OSHKOSH        MIX PCPN  36  33  89 W13G22    29.48R
FOND DU LAC    FLURRIES  37  32  82 W14G24    29.50R
$$

WIZ022-050-052-271900-
EAST CENTRAL WISCONSIN

CITY           SKY/WX    TMP DP  RH WIND       PRES   REMARKS
EPHRAIM        CLOUDY    39  39 100 W8G16     29.35R FOG
WASHINGTON ISL CLOUDY    38  37  97 W12G20    29.32R FOG
STURGEON BAY   LGT RAIN  41  39  93 W13       29.40R FOG
MANITOWOC      CLOUDY    41  35  79 W18G31    29.45R
SHEBOYGAN      LGT RAIN  41  37  86 W22       29.47R
$$

LMZ563-521-522-541>543-271900-
LAKESHORE

STATION/POSITION TIME  TEMP    WIND        PRES    VSBY  WAVE
                       AIR SEA DIR/SP/G                  HT/PER
                 (UTC) (F)     (DEG/KT/KT) (MB)    (MI)  (FT/S)
SHEBOYGAN LKSHOR 1800   41     240/ 19/ 24  998.2R
KEWAUNEE LKSHORE 1748   42     250/ 17/ 22  996.1R
NORTHPORT PIER   1740   39     300/  9/ 15  993.6R
N MID LAKE BUOY  1750   41 37  180/ 21/ 27  991.9F         2/ 4
CHAMBERS ISLAND  1740   39     250/  6/ 10  993.9R
MENOMINEE LKSHOR 1748   40     260/  6/ 12  994.2R
$$



USA.gov is the U.S. government's official web portal to all federal, state and local government web resources and services.